Weather History for KRFD - September, 2013

Change the Weather History Date:

Monday, September 9, 2013

  Actual Average Record
Temperature  
Mean Temperature 81 °F 67 °F  
Max Temperature 94 °F 78 °F 97 °F (1955)
Min Temperature 68 °F 56 °F 41 °F (1924)
Degree Days  
Heating Degree Days 0 2  
Month to date heating degree days 0 12  
Since 1 July heating degree days 11 26  
Cooling Degree Days 16 4  
Month to date cooling degree days 65 41  
Year to date cooling degree days 814 768  
Growing Degree Days 30 (Base 50)    
Moisture  
Dew Point 70 °F    
Average Humidity 75    
Maximum Humidity 97    
Minimum Humidity 52    
Precipitation  
Precipitation 0.00 in 0.12 in 5.45 in (1941)
Month to date precipitation 0.03 1.06  
Year to date precipitation 32.03 26.72  
Snow  
Snow 0.00 in 0.00 in 0.00 in ()
Month to date snowfall 0.0 0.0  
Since 1 July snowfall 0.0 0.0  
Since 1 September snowfall 0.0 0.0  
Snow Depth 0.00 in    
Sea Level Pressure  
Sea Level Pressure 29.88 in    
Wind  
Wind Speed 9 mph (SSE)    
Max Wind Speed 18 mph    
Max Gust Speed 22 mph    
Visibility 7 miles    
Events      
T = Trace of Precipitation, MM = Missing Value Source: NWS Daily Summary

Daily Weather History Graph

Daily Weather History Graph

Search for Another Location

Airport or City:

Trip Planner

Search our weather history database for the weather conditions in past years. The results will help you decide how hot, cold, wet, or windy it might be!

Date:

Astronomy

Sep. 09, 2013 Rise Set
Actual Time 6:30 AM CDT 7:16 PM CDT
Civil Twilight 6:02 AM CDT 7:44 PM CDT
Nautical Twilight 5:28 AM CDT 8:17 PM CDT
Astronomical Twilight 4:53 AM CDT 8:52 PM CDT
Moon 10:57 AM CDT (9/9) 9:26 PM CDT (9/9)
Length of Visible Light 13h 42m
Length of Day
12h 45m
Waxing Crescent, 19% of the Moon is Illuminated
Sep 9
Waxing Crescent
Sep 12
First Quarter
Sep 19
Full
Sep 26
Last Quarter
Oct 4
New

Hourly Weather History & Observations

Time (CDT) Temp. Heat Index Dew Point Humidity Pressure Visibility Wind Dir Wind Speed Gust Speed Precip Events Conditions
12:54 AM 69.1 °F - 64.9 °F 87% 29.96 in 8.0 mi ESE 5.8 mph - N/A   Overcast
1:54 AM 68.0 °F - 64.9 °F 90% 29.94 in 6.0 mi ESE 5.8 mph - N/A   Mostly Cloudy
2:54 AM 68.0 °F - 64.9 °F 90% 29.94 in 6.0 mi SE 4.6 mph - N/A   Partly Cloudy
3:54 AM 68.0 °F - 66.0 °F 93% 29.92 in 5.0 mi SE 3.5 mph - N/A   Scattered Clouds
4:54 AM 68.0 °F - 66.0 °F 93% 29.91 in 4.0 mi SSE 6.9 mph - N/A   Mostly Cloudy
5:54 AM 68.0 °F - 66.0 °F 93% 29.90 in 3.0 mi SSE 6.9 mph - N/A   Scattered Clouds
6:17 AM 68.0 °F - 66.2 °F 94% 29.91 in 2.0 mi SSE 5.8 mph - N/A   Scattered Clouds
6:28 AM 68.0 °F - 66.2 °F 94% 29.91 in 2.5 mi South 4.6 mph - N/A   Mostly Cloudy
6:54 AM 68.0 °F - 66.0 °F 93% 29.91 in 2.0 mi SSE 6.9 mph - N/A   Overcast
7:08 AM 69.8 °F - 66.2 °F 88% 29.92 in 2.0 mi SSE 6.9 mph - N/A   Overcast
7:18 AM 69.8 °F - 66.2 °F 88% 29.92 in 1.5 mi SSE 6.9 mph - N/A   Overcast
7:54 AM 70.0 °F - 68.0 °F 93% 29.92 in 2.0 mi SSE 4.6 mph - N/A   Overcast
8:38 AM 71.6 °F - 69.8 °F 94% 29.92 in 2.0 mi SSE 8.1 mph - N/A   Overcast
8:54 AM 73.0 °F - 69.1 °F 87% 29.90 in 2.0 mi SSE 8.1 mph - N/A   Overcast
9:33 AM 77.0 °F - 69.8 °F 78% 29.91 in 5.0 mi South 6.9 mph - N/A   Haze
9:41 AM 77.0 °F - 71.6 °F 83% 29.90 in 5.0 mi South 10.4 mph - N/A   Haze
9:54 AM 79.0 °F - 71.1 °F 77% 29.90 in 8.0 mi South 9.2 mph - N/A   Mostly Cloudy
10:54 AM 82.0 °F 86.7 °F 72.0 °F 71% 29.88 in 9.0 mi South 9.2 mph - N/A   Mostly Cloudy
11:17 AM 82.4 °F 87.2 °F 71.6 °F 70% 29.90 in 10.0 mi South 6.9 mph - N/A   Scattered Clouds
11:54 AM 84.9 °F 91.4 °F 73.0 °F 67% 29.88 in 10.0 mi South 10.4 mph - N/A   Scattered Clouds
12:54 PM 89.1 °F 97.0 °F 73.0 °F 59% 29.86 in 10.0 mi South 12.7 mph - N/A   Scattered Clouds
1:54 PM 91.0 °F 99.3 °F 73.0 °F 55% 29.85 in 10.0 mi South 11.5 mph - N/A   Partly Cloudy
2:54 PM 93.0 °F 103.2 °F 73.9 °F 54% 29.82 in 10.0 mi South 11.5 mph 18.4 mph N/A   Partly Cloudy
3:54 PM 93.0 °F 103.2 °F 73.9 °F 54% 29.81 in 10.0 mi South 12.7 mph - N/A   Partly Cloudy
4:54 PM 93.9 °F 104.0 °F 73.9 °F 52% 29.81 in 9.0 mi South 13.8 mph - N/A   Clear
5:54 PM 91.9 °F 101.3 °F 73.9 °F 55% 29.81 in 10.0 mi South 12.7 mph - N/A   Clear
6:54 PM 88.0 °F 96.5 °F 73.9 °F 63% 29.82 in 10.0 mi South 10.4 mph - N/A   Partly Cloudy
7:54 PM 82.9 °F 88.8 °F 73.0 °F 72% 29.83 in 10.0 mi South 8.1 mph - N/A   Scattered Clouds
8:54 PM 84.0 °F 89.0 °F 71.1 °F 65% 29.84 in 10.0 mi SSW 10.4 mph - N/A   Scattered Clouds
9:54 PM 82.0 °F 86.3 °F 71.1 °F 69% 29.85 in 10.0 mi SSW 9.2 mph - N/A   Scattered Clouds
10:54 PM 80.1 °F 83.6 °F 71.1 °F 74% 29.86 in 10.0 mi SSW 8.1 mph - N/A   Scattered Clouds
11:54 PM 82.0 °F 84.9 °F 68.0 °F 62% 29.87 in 10.0 mi SSW 9.2 mph - N/A   Partly Cloudy